Location: Amsterdam
(30.7274°N, 84.4357°W)
Time: 16:41:49
(UTC+00:00)

QB50P2 - Visible Passes

Search period start: 14 March 2026 00:00
Search period end: 24 March 2026 00:00
Orbit: 518 x 531 km, 98.1° (Epoch: 13 March)

Date Brightness Start Highest point End Pass type
(mag) Time Alt. Az. Time Alt. Az. Time Alt. Az.
14 Mar ? 10:44:23 10° N 10:48:10 86° WNW 10:51:56 10° SSW visible
15 Mar ? 10:32:21 10° NNE 10:36:06 61° E 10:39:50 10° S visible
16 Mar ? 10:20:25 10° NNE 10:23:59 40° E 10:27:33 10° S visible
17 Mar ? 10:08:37 10° NE 10:11:51 27° E 10:15:04 10° SSE visible
18 Mar ? 09:56:59 10° NE 09:59:40 18° E 10:02:20 10° SE visible
19 Mar ? 09:45:46 10° ENE 09:47:27 13° E 09:49:06 10° ESE visible
20 Mar ? 11:05:54 10° N 11:09:30 43° WNW 11:13:06 10° SSW visible
21 Mar ? 10:53:35 10° N 10:57:21 68° WNW 11:01:06 10° SSW visible
22 Mar ? 10:41:22 10° NNE 10:45:09 79° ESE 10:48:56 10° S visible
23 Mar ? 10:29:15 10° NNE 10:32:56 50° E 10:36:37 10° S visible
